HST
1 20580U 90037B   25019.53297781  .00011302  00000-0  46508-3 0  9996
2 20580  28.4693 330.6431 0002465 247.7016 112.3316 15.22506130709988
ISS (ZARYA)
1 25544U 98067A   25020.36826645  .00024420  00000-0  43042-3 0  9997
2 25544  51.6400 319.2443 0002382 109.8230  34.3352 15.50269473492234
CXO
1 25867U 99040B   25018.70403827  .00000532  00000-0  00000-0 0  9997
2 25867  46.1607 137.5767 8637386 306.3857   0.1471  0.37807172 15388